Location: ??????
(56.0120°N, 39.1740°E)
Time: 09:55:13
(UTC+00:00)

Cosmos 2016 Rocket - Pass Details

Date: 14 April 2026
Orbit: 945 x 1001 km, 83.0° (Epoch: 19 May)

Event Time Altitude Azimuth Distance (km) Brightness Sun altitude
Exits shadow 22:10:49 39° 236° (SW) 1,466 4.5 -23.6°
Maximum altitude 22:12:54 54° 289° (WNW) 1,198 4.4 -23.5°
Drops below altitude 10° 22:19:09 10° 6° (N) 2,770 7.5 -23.3°
Sets 22:21:46 0° 12° (NNE) 3,716 8.5 -23.2°
